Find Starlink 35615

NORAD ID: 66257 Int'l Des: 2025-245 Owner: SPXS Country: US Constellation: starlink operational
LEOCIRCULAR

Live Position

Loading 3D Globe...

About Starlink 35615

Description loading...

Upcoming Passes

Passes for default location (London). Set your location on the main map for personalized predictions.

Altitude History

Loading altitude history...

Two-Line Element Set

1 66257U 25245Z 26106.98530766 .00009864 00000-0 34463-3 0 9993
2 66257 53.1584 105.7307 0001342 70.8934 289.2212 15.30208292 27128
Epoch: Apr 16, 2026 • Age: 17 hours

Current Status

Altitude 491.4 km
Velocity 7.62 km/s
Sub-Earth Point -45.40°S, 119.92°W
Launch Date Oct 29, 2025
Age 0.4 years
Type internet

Technical Details

Classification Payload
Mass 575.00 kg
Dry Mass 530.00 kg
Total Mass 575.00 kg
Length 0.30 m
Diameter 4.10 m
Span 29.00 m
Shape Box + pan
Manufacturer SPXS
Bus Type Starlink V2MO
Phase Status In Orbit
Owner/State SPXS/US

Most Searched